PDT,Max TemperatureF,Mean TemperatureF,Min TemperatureF,Max Dew PointF,MeanDew PointF,Min DewpointF,Max Humidity, Mean Humidity, Min Humidity, Max Sea Level PressureIn, Mean Sea Level PressureIn, Min Sea Level PressureIn, Max VisibilityMiles, Mean VisibilityMiles, Min VisibilityMiles, Max Wind SpeedMPH, Mean Wind SpeedMPH, Max Gust SpeedMPH,PrecipitationIn, CloudCover, Events, WindDirDegrees
2011-10-1,77,70,61,57,54,50,81,66,40,30.04,29.99,29.92,10,10,10,15,9,20,0.00,4,,215
2011-10-2,78,64,52,55,49,45,89,60,34,30.07,30.01,29.96,10,10,10,12,5,17,0.00,0,,222
2011-10-3,68,57,48,56,51,42,94,77,57,29.96,29.92,29.89,10,10,6,14,5,21,0.04,3,Rain,265
2011-10-4,64,60,55,58,55,52,100,91,63,29.92,29.89,29.74,10,7,2,13,4,21,0.09,7,Rain,218
2011-10-5,66,60,53,54,49,42,100,80,40,29.85,29.72,29.62,10,8,2,16,7,,0.57,3,Rain,209
2011-10-6,64,56,48,53,48,40,94,78,60,30.07,29.96,29.86,10,9,2,13,4,22,0.17,5,Rain,276
2011-10-7,72,58,44,51,46,42,93,70,41,30.17,30.12,30.07,10,10,8,6,2,,0.00,0,,171
2011-10-8,77,62,46,54,50,45,97,73,39,30.12,30.07,30.01,10,10,10,7,1,,0.01,0,,243
2011-10-9,78,62,48,55,52,47,100,72,40,30.05,29.98,29.91,10,10,10,7,1,,0.00,0,,197
2011-10-10,68,64,61,63,60,54,94,86,70,29.98,29.94,29.90,10,10,8,13,8,21,0.00,7,Rain,203
2011-10-11,80,70,61,61,59,55,94,77,50,30.07,30.03,29.97,10,10,10,10,7,20,0.00,1,,221
2011-10-12,84,68,53,56,50,41,96,62,23,30.12,30.04,29.97,10,10,10,6,1,,0.00,0,,279
2011-10-13,86,68,52,53,49,46,89,58,26,29.99,29.92,29.83,10,10,10,7,1,,0.00,0,,303
2011-10-14,88,70,53,58,52,48,86,56,27,29.87,29.83,29.79,10,10,9,7,2,,0.00,0,,11
2011-10-15,84,70,57,58,56,53,87,63,40,29.90,29.86,29.81,10,10,10,8,2,,0.00,0,,200
2011-10-16,81,70,59,57,55,53,83,63,39,30.07,30.00,29.91,10,10,10,7,3,,0.00,0,,223
2011-10-17,89,72,55,58,53,49,96,62,25,30.11,30.06,29.99,10,10,10,7,2,16,0.00,0,,306
2011-10-18,87,70,53,58,53,49,89,60,28,30.06,29.98,29.91,10,10,10,10,2,,0.00,0,,212
2011-10-19,78,66,54,57,55,52,93,71,50,30.01,29.96,29.92,10,10,9,9,5,16,0.00,0,,221
2011-10-20,80,66,52,57,54,50,97,72,42,30.04,29.98,29.95,10,10,9,9,2,,0.00,0,,198
2011-10-21,82,65,48,54,50,46,97,63,27,30.17,30.11,30.05,10,10,10,6,2,,0.00,0,,303
2011-10-22,86,68,50,49,46,42,86,58,21,30.14,30.07,30.00,10,10,10,7,2,,0.00,0,,314
2011-10-23,82,65,48,53,49,45,86,64,33,30.03,29.97,29.91,10,10,10,8,1,,0.00,0,,17
2011-10-24,77,64,51,55,52,48,89,69,43,29.98,29.95,29.91,10,10,10,12,2,,0.00,0,,219
2011-10-25,77,62,50,52,40,17,93,55,15,30.06,30.02,29.99,10,10,9,15,6,23,0.00,0,,253
2011-10-26,75,62,50,26,17,13,39,19,10,30.14,30.08,30.04,10,10,10,21,11,33,0.00,0,,345
2011-10-27,73,56,39,35,31,26,68,43,20,30.10,30.06,30.03,10,10,10,8,3,,0.00,0,,321
2011-10-28,77,56,37,37,33,30,83,48,19,30.16,30.11,30.08,10,10,10,4,1,,0.00,0,,260
2011-10-29,82,62,41,41,36,30,76,47,15,30.17,30.10,30.03,10,10,10,7,1,,0.00,0,,241
2011-10-30,80,62,46,47,44,41,83,55,29,30.14,30.08,30.04,10,10,10,6,2,,0.00,0,,256
2011-10-31,82,64,46,51,48,40,90,60,34,30.08,30.02,29.95,10,10,10,10,1,17,0.00,0,,261